Regional Weather Roundup
Issued by NWS

Home | Current Version | Previous Version | Text Only | Print | Product List | Glossary On
Versions: 1 2 3 4 5 6 7 8 9 10 11 12 13 14 15 16 17 18 19 20 21 22 23 24 25 26 27 28 29 30 31 32 33 34 35 36 37 38 39 40 41 42 43 44 45 46 47 48 49 50
000
ASUS44 KOUN 051310
RWROK

WEATHER ROUNDUP FOR OKLAHOMA
NATIONAL WEATHER SERVICE NORMAN OK
700 AM CST MON DEC 05 2016

NOTE: "FAIR" INDICATES FEW OR NO CLOUDS BELOW 12,000 FEET WITH NO
      SIGNIFICANT WEATHER AND/OR OBSTRUCTIONS TO VISIBILITY.

OKZ001>007-009>012-014-015-017-051400-
NORTHWEST OKLAHOMA AND THE PANHANDLE

CITY           SKY/WX    TMP DP  RH WIND       PRES   REMARKS
GAGE           CLEAR     33  29  85 S9        29.79F WCI  25
GUYMON         CLOUDY    31  27  85 SW10      29.69F WCI  22
ENID/WOODRING  PTCLDY    27  27 100 SE3         N/A
$$

OKZ016-021>023-033>039-044-045-051400-
SOUTHWEST OKLAHOMA

CITY           SKY/WX    TMP DP  RH WIND       PRES   REMARKS
LAWTON/REGL    FOG       32  32 100 CALM      29.89F VSB 1/4
LAWTON/FT SILL FOG       32  32 100 N1        29.86F VSB 1/4
FREDERICK      FOG       31  31 100 N5        29.85F VSB 1/2 WCI  26
CLINTON        PTCLDY    34  31  88 S8        29.84F WCI  27
HOBART         CLOUDY    33  32  96 S8        29.86F FOG     WCI  26
ALTUS AFB      FOG       30  28  94 SE5       29.86F VSB 1/4 WCI  25
$$

OKZ018>020-024>031-051400-
CENTRAL OKLAHOMA

CITY           SKY/WX    TMP DP  RH WIND       PRES   REMARKS
OKLAHOMA CITY  FOG       32  31  96 CALM      29.88F VSB 1/4
OKC/WILEY POST FOG       32  31  96 S9        29.89F VSB 1/4 WCI  24
OKC/TINKER AFB FOG       32  32 100 S3        29.87F VSB 1/4
STILLWATER     CLOUDY    32  31  96 SE5       29.90F FOG     WCI  27
GUTHRIE        CLOUDY    36  35  96 S6        29.90F WCI  31
$$

OKZ008-013-054>072-051400-
NORTHEAST OKLAHOMA

CITY           SKY/WX    TMP DP  RH WIND       PRES   REMARKS
TULSA          PTCLDY    34  34 100 SE3       29.93F FOG
TULSA/JONES    FOG       32  31  96 CALM      29.95F VSB 1/4
PONCA CITY     CLEAR     34  32  92 SE10      29.88F WCI  26
BARTLESVILLE   FOG       32  30  92 CALM      29.94F VSB 1/4
MUSKOGEE       FOG       31  31 100 CALM      29.95F VSB 1/4
$$

OKZ032-040>043-046>053-073>077-051400-
SOUTH CENTRAL/SOUTHEAST OKLAHOMA

CITY           SKY/WX    TMP DP  RH WIND       PRES   REMARKS
ARDMORE/DWNTWN CLOUDY    34  32  93 CALM      29.91R FOG
MCALESTER      FOG       35  34  96 CALM      29.94F VSB 1/4
$$





USA.gov is the U.S. government's official web portal to all federal, state and local government web resources and services.